PDT,Max TemperatureF,Mean TemperatureF,Min TemperatureF,Max Dew PointF,MeanDew PointF,Min DewpointF,Max Humidity, Mean Humidity, Min Humidity, Max Sea Level PressureIn, Mean Sea Level PressureIn, Min Sea Level PressureIn, Max VisibilityMiles, Mean VisibilityMiles, Min VisibilityMiles, Max Wind SpeedMPH, Mean Wind SpeedMPH, Max Gust SpeedMPH,PrecipitationIn, CloudCover, Events, WindDirDegrees
2010-10-1,68,64,60,59,57,55,88,80,68,30.02,29.99,29.97,15,11,8,17,9,,0.00,5,,339
2010-10-2,69,63,57,61,57,54,88,78,64,29.97,29.93,29.89,15,13,10,16,7,,0.00,4,,346
2010-10-3,69,64,57,57,55,52,88,74,60,30.00,29.96,29.93,15,13,7,17,6,,0.00,5,,327
2010-10-4,64,60,57,52,50,50,77,69,59,29.99,29.95,29.91,10,10,8,14,10,24,0.00,6,,267
2010-10-5,71,61,51,59,54,48,88,70,50,29.95,29.91,29.88,20,18,10,14,7,,0.00,3,,16
2010-10-6,71,61,51,55,53,50,94,68,53,30.05,30.00,29.97,20,16,10,17,7,,0.00,4,Rain,360
2010-10-7,69,60,51,57,53,50,94,71,56,30.18,30.16,30.14,20,13,10,17,8,,0.00,2,,339
2010-10-8,75,62,48,57,53,46,93,69,38,30.22,30.19,30.15,20,17,15,17,7,,0.00,2,,346
2010-10-9,77,64,50,59,54,46,87,63,47,30.27,30.21,30.16,20,20,20,17,8,17,0.00,4,,341
2010-10-10,77,65,53,63,60,52,94,76,61,30.13,30.04,29.97,20,15,10,14,6,,0.00,0,,345
2010-10-11,84,68,53,64,60,54,100,66,42,30.00,29.96,29.91,,,,14,6,,0.00,0,,355
2010-10-12,91,80,69,63,49,39,69,36,18,30.04,30.00,29.96,,,,14,9,,0.00,0,,20
2010-10-13,89,72,55,63,55,48,77,55,24,30.06,30.02,29.97,20,20,20,12,7,,0.00,0,,341
2010-10-14,87,74,62,64,59,50,77,60,27,30.07,30.02,29.97,20,18,13,16,6,,0.00,3,,338
2010-10-15,75,65,55,63,59,54,94,74,61,30.04,30.00,29.97,20,20,20,14,7,,0.00,1,,344
2010-10-16,66,58,51,57,53,50,94,79,68,30.08,30.04,30.00,10,10,10,17,7,20,0.00,6,,339
2010-10-17,59,57,55,54,52,50,88,84,77,30.13,30.08,30.05,15,10,10,12,7,,0.00,8,Rain,326
2010-10-18,66,62,57,55,54,52,88,79,68,30.07,30.02,29.98,20,13,10,15,7,,0.00,3,,16
2010-10-19,68,62,55,59,56,54,94,83,68,29.99,29.93,29.87,10,7,3,12,5,,0.00,3,,336
2010-10-20,66,60,53,57,55,52,94,84,68,30.02,29.98,29.94,10,6,3,13,7,,0.00,4,Fog,347
2010-10-21,68,62,55,52,51,50,88,68,56,30.09,30.06,30.02,11,10,10,12,8,,0.00,7,,138
2010-10-22,62,58,55,59,55,52,94,87,77,30.05,30.02,29.98,20,10,3,9,3,,0.00,8,Rain,291
2010-10-23,64,60,55,55,52,48,88,75,56,30.07,30.04,30.01,20,15,10,17,10,,0.00,8,Rain,149
2010-10-24,69,66,62,64,61,57,94,88,78,30.00,29.96,29.92,20,10,2,21,13,,0.00,8,Rain,214
2010-10-25,66,58,50,52,48,45,100,67,49,30.15,30.11,30.08,20,14,10,16,6,,0.00,3,,318
2010-10-26,68,59,50,50,45,43,87,60,40,30.16,30.10,30.04,20,19,15,17,9,,0.00,1,,316
2010-10-27,64,52,39,45,40,37,93,58,42,30.11,30.07,30.03,,,,9,4,,0.00,6,,37
2010-10-28,77,62,46,48,38,30,76,42,18,30.02,29.97,29.93,20,20,20,17,8,21,0.00,4,,152
2010-10-29,66,62,57,55,51,46,82,67,52,30.00,29.93,29.84,20,19,13,12,7,,0.00,8,Rain,21
2010-10-30,66,60,53,55,52,50,88,75,56,30.11,30.02,29.91,20,18,10,16,10,,0.00,7,Rain,171
2010-10-31,69,58,46,54,50,45,100,73,49,30.24,30.21,30.18,10,10,10,15,5,,0.00,2,,341